Location: CCZU
(31.6840°N, 119.9550°E)
Time: 18:29:03
(UTC+08:00)

Tiangong 2 - Pass Details

Date: 03 May 2019
Orbit: 379 x 387 km, 42.8° (Epoch: 20 May)

Event Time Altitude Azimuth Distance (km) Brightness Sun altitude
Exits shadow 03:59:32 38° 248° (WSW) 601 1.5 -15.2°
Maximum altitude 04:00:36 78° 329° (NNW) 393 1.0 -15.0°
Drops below altitude 10° 04:03:45 10° 56° (NE) 1,404 5.3 -14.4°
Sets 04:05:50 0° 58° (ENE) 2,261 6.9 -14.0°
